Location: Zagreb
(45.8000°N, 16.0000°E)
Time: 19:29:59
(UTC+02:00)

ISS - Pass Details

Date: 30 September 2021
Orbit: 417 x 423 km, 51.6° (Epoch: 23 October)

Event Time Altitude Azimuth Distance (km) Brightness Sun altitude
Rises 19:26:53 0° 296° (WNW) 2,364 1.6 -9.4°
Reaches altitude 10° 19:29:04 10° 305° (NW) 1,500 0.1 -9.7°
Maximum altitude 19:32:14 37° 15° (NNE) 667 -2.8 -10.3°
Enters shadow 19:34:37 16° 78° (ENE) 1,209 -2.0 -10.7°
